TimeEST,TemperatureF,Dew PointF,Humidity,Sea Level PressureIn,VisibilityMPH,Wind Direction,Wind SpeedMPH,Gust SpeedMPH,PrecipitationIn,Events,Conditions,WindDirDegrees,DateUTC
12:52 AM,48.9,23.0,36,30.08,10.0,NNW,11.5,-,N/A,,Scattered Clouds,330,2012-01-08 05:52:00
1:52 AM,46.0,24.1,42,30.12,10.0,NNW,5.8,-,N/A,,Mostly Cloudy,340,2012-01-08 06:52:00
2:52 AM,45.0,26.1,48,30.14,10.0,NNW,10.4,-,N/A,,Mostly Cloudy,340,2012-01-08 07:52:00
3:52 AM,44.1,26.1,49,30.16,10.0,NNW,8.1,-,N/A,,Mostly Cloudy,340,2012-01-08 08:52:00
4:52 AM,44.1,26.1,49,30.18,10.0,North,4.6,-,N/A,,Overcast,350,2012-01-08 09:52:00
5:52 AM,43.0,27.0,53,30.19,10.0,Calm,Calm,-,N/A,,Overcast,0,2012-01-08 10:52:00
6:52 AM,42.1,27.0,55,30.22,10.0,NNW,5.8,-,N/A,,Mostly Cloudy,340,2012-01-08 11:52:00
7:52 AM,44.6,28.4,53,30.24,10.0,NNW,5.8,-,N/A,,Mostly Cloudy,330,2012-01-08 12:52:00
8:52 AM,46.0,28.9,51,30.26,10.0,North,6.9,-,N/A,,Mostly Cloudy,350,2012-01-08 13:52:00
9:52 AM,48.0,28.0,46,30.29,10.0,North,9.2,-,N/A,,Mostly Cloudy,350,2012-01-08 14:52:00
10:52 AM,50.0,28.0,43,30.30,10.0,NNW,9.2,-,N/A,,Mostly Cloudy,330,2012-01-08 15:52:00
11:52 AM,51.1,27.0,39,30.28,10.0,NW,12.7,20.7,N/A,,Mostly Cloudy,320,2012-01-08 16:52:00
12:52 PM,51.1,28.0,41,30.25,10.0,North,8.1,17.3,N/A,,Mostly Cloudy,350,2012-01-08 17:52:00
1:52 PM,51.1,27.0,39,30.25,10.0,NNW,11.5,17.3,N/A,,Mostly Cloudy,340,2012-01-08 18:52:00
2:52 PM,51.1,26.1,38,30.26,10.0,NW,12.7,18.4,N/A,,Mostly Cloudy,320,2012-01-08 19:52:00
3:52 PM,50.0,26.1,39,30.27,10.0,WNW,9.2,-,N/A,,Mostly Cloudy,300,2012-01-08 20:52:00
4:52 PM,46.9,27.0,46,30.28,10.0,North,9.2,-,N/A,,Mostly Cloudy,350,2012-01-08 21:52:00
5:52 PM,45.0,26.1,48,30.30,10.0,North,8.1,-,N/A,,Mostly Cloudy,350,2012-01-08 22:52:00
6:52 PM,42.1,26.1,53,30.31,10.0,North,6.9,-,N/A,,Mostly Cloudy,350,2012-01-08 23:52:00
7:52 PM,41.0,27.0,57,30.32,10.0,North,9.2,-,N/A,,Mostly Cloudy,10,2012-01-09 00:52:00
8:52 PM,39.9,26.1,58,30.34,10.0,NNE,4.6,-,N/A,,Mostly Cloudy,20,2012-01-09 01:52:00
9:52 PM,39.9,25.0,55,30.35,10.0,NNE,10.4,-,N/A,,Mostly Cloudy,20,2012-01-09 02:52:00
10:52 PM,37.9,24.1,57,30.35,10.0,NNE,9.2,-,N/A,,Mostly Cloudy,30,2012-01-09 03:52:00
11:52 PM,37.0,24.1,59,30.35,10.0,NE,5.8,-,N/A,,Mostly Cloudy,50,2012-01-09 04:52:00